User: anonymous   Login
Location: Unspecified
(0.0000°N, 0.0000°E)
Time: 06:16:10
(UTC+00:00)
Language:

Oscar 15 - Orbit

View from above orbital plane
View from above orbital plane
View from above satellite
View from above satellite

Ground track
Ground track

The orbit data is extracted from the following two-line orbital elements,

1 20438U 90005C   18116.80087988 -.00000021  00000-0  92984-5 0  9997
2 20438  98.7562  70.9484 0010651  40.5865  15.1068 14.31012490475135
Epoch (UTC): 26 April 2018 19:13:16
Eccentricity: 0.0010651
inclination: 98.7562°
perigee height: 781 km
apogee height: 796 km
right ascension of ascending node: 70.9484°
argument of perigee: 40.5865°
revolutions per day: 14.31012490
mean anomaly at epoch: 15.1068°
orbit number at epoch: 47513

The dashed part of the orbit path shows where the satellite is in the earth's shadow,  

DLR